Lid_Strength_Index
-2 -1 -1 -1 -1 -1 0 -0 -1 0 1 1 1 2 2 1 1 3 6 3 2 -0 0 1 2 3 5 7 6 5 9 13 12 14 13 10 11 10 6 5 5 4 5 4 2
-2 -1 -1 -1 -1 -1 0 -0 -1 0 1 1 0 2 1 1 2 5 3 1 0 -1 3 2 4 3 8 8 6 7 10 10 10 12 13 11 11 11 9 6 6 6 6 6 3
-2 -0 -1 -1 -1 -1 1 -0 -2 -0 1 1 0 1 1 1 4 6 0 1 -1 -0 2 1 2 5 9 8 8 7 10 9 11 11 11 11 11 10 9 9 8 7 8 8 7
-1 -0 -1 -1 -1 -0 1 -0 -1 -0 1 0 -0 1 1 2 9 4 1 1 -1 1 2 3 3 6 9 10 8 10 8 9 10 10 11 12 10 12 11 10 7 7 7 7 8
-1 0 -1 -1 -0 1 2 1 -0 -0 1 -0 -1 1 3 6 7 2 1 1 1 2 3 4 5 6 10 9 9 10 10 8 8 10 11 11 11 11 12 9 7 7 6 7 7
-0 1 -0 -1 0 0 2 1 -0 -1 0 -1 -1 -0 4 8 4 1 2 2 1 3 3 4 5 4 7 8 10 9 9 9 9 9 11 12 12 11 11 9 8 8 7 6 7
0 1 0 -1 -0 0 1 1 -0 -1 -1 -1 -1 1 6 7 3 1 2 1 1 3 4 4 4 6 5 8 7 9 10 10 10 10 11 11 13 13 11 10 9 8 8 7 7
1 1 1 0 1 0 1 2 1 -1 -1 -1 -1 1 7 3 0 2 2 2 1 3 3 3 3 5 6 6 8 10 11 12 10 10 11 10 13 12 11 10 11 10 10 9 9
1 1 1 0 1 0 2 2 1 -0 -1 -1 1 3 7 2 3 3 3 4 3 3 3 4 4 6 6 9 11 11 15 14 12 9 10 11 12 11 11 11 11 10 10 10 10
1 1 1 0 1 1 3 1 0 -0 -0 -0 1 5 5 7 3 3 2 3 5 5 5 6 6 8 8 10 16 15 15 13 13 10 10 11 12 11 11 11 10 10 10 10 10
1 1 1 1 2 2 4 2 4 5 3 6 6 6 6 3 2 4 3 4 5 6 8 7 9 11 9 8 10 10 12 13 11 9 11 11 11 10 11 11 11 10 11 11 11
2 1 1 1 2 3 2 6 7 7 8 4 4 5 4 3 7 5 3 6 6 9 7 9 11 8 8 9 10 11 12 12 10 11 12 12 11 10 11 11 10 10 11 11 11
2 2 1 1 2 3 5 7 5 5 8 7 4 5 5 4 7 6 5 6 7 8 8 10 9 7 9 10 11 11 12 12 12 11 12 13 14 12 10 10 10 9 9 10 11
3 2 2 2 4 4 6 5 5 3 11 10 7 5 5 5 8 4 4 6 7 9 8 8 8 9 10 10 10 12 10 11 12 13 16 12 18 12 11 11 11 10 10 10 11
4 3 3 2 4 5 5 4 3 3 18 8 8 3 4 8 7 6 4 6 9 8 8 10 9 9 10 9 9 11 9 10 11 13 13 14 16 13 11 12 12 11 10 10 10
5 4 4 4 3 3 3 3 2 13 18 12 9 9 8 8 8 6 6 5 6 8 8 8 8 8 8 8 8 8 10 11 11 12 18 13 15 14 13 12 11 10 10 10 10
5 5 4 3 6 3 3 3 13 17 11 13 11 9 10 10 9 8 9 10 11 12 12 10 10 8 8 9 9 10 12 17 18 19 18 13 14 13 10 10 10 10 10 10 11
6 6 5 5 3 3 4 9 17 13 12 9 10 9 12 10 10 10 10 11 9 10 11 13 14 10 8 9 10 11 11 15 20 19 16 14 16 13 10 11 10 11 9 10 11
6 6 5 4 3 3 7 14 14 12 10 11 11 13 13 11 11 11 11 11 10 9 12 12 12 8 8 7 8 11 13 10 13 13 16 14 12 11 12 13 12 11 10 11 12
7 7 8 5 3 4 10 12 11 9 9 9 13 11 14 12 12 12 12 10 10 9 8 10 13 9 9 8 7 9 8 13 13 20 20 15 14 13 12 12 13 12 11 12 12
8 10 7 5 3 6 12 12 11 9 9 10 11 12 11 12 11 12 12 11 9 9 8 9 11 12 10 11 11 10 11 10 11 13 17 17 14 11 11 11 12 12 12 12 13
9 13 7 5 11 12 11 11 9 9 8 9 9 9 11 10 11 12 12 11 8 8 10 9 10 13 12 9 8 8 10 10 14 15 13 14 15 10 11 11 11 11 12 12 13
10 11 7 7 14 14 13 12 9 9 9 10 10 9 8 10 13 11 11 8 8 8 10 8 13 16 14 11 10 11 10 9 10 10 14 17 15 12 11 11 11 11 12 12 13
11 14 12 10 12 13 14 14 12 8 9 10 11 10 10 11 9 12 11 9 8 9 7 7 10 12 15 13 10 13 11 10 11 15 15 14 12 10 11 11 11 11 12 12 13
11 13 14 15 15 13 13 14 13 13 9 8 10 12 11 13 12 12 10 9 9 8 8 8 14 12 11 10 9 11 11 11 12 11 14 12 11 10 8 8 10 11 12 13 14
12 13 14 14 13 14 14 14 14 12 12 12 11 9 9 12 11 13 11 10 10 9 10 9 14 12 14 10 11 13 11 10 11 11 11 11 11 7 8 8 9 11 12 13 13
9 11 11 13 14 14 14 13 14 12 11 9 10 10 10 9 8 7 7 9 11 12 11 11 13 14 16 12 12 16 13 12 11 9 10 13 10 7 8 10 10 10 12 13 13